FW7688 Weather Reports


time (UTC)temp
C
wind
direction
speed
KPH
gust
KPH
rain 1hr
cm
rain 24hr
cm
rain mn
cm
humidity
%
barometer
mb
20260509034539 7 235 0.0 0.0 0.00 0.00 0.00 82 1014.9
20260509033024 7 235 0.0 0.0 0.00 0.00 0.00 82 1014.7
20260509031606 7 235 0.0 0.0 0.00 0.00 0.00 82 1014.6
20260509030019 7 235 0.0 0.0 0.00 0.00 0.00 82 1014.5
20260509024524 7 235 0.0 0.0 0.00 0.00 0.00 83 1014.3
20260509023016 7 234 0.0 0.0 0.00 0.00 0.00 82 1014.5
20260509021515 7 235 0.0 0.0 0.00 0.00 0.00 82 1014.6
20260509020014 6 235 0.0 0.0 0.00 0.00 0.00 81 1014.4
20260509014530 6 235 0.0 0.0 0.00 0.00 0.00 78 1014.4
20260509013010 7 235 0.0 0.0 0.00 0.00 0.00 79 1014.2
20260509011509 7 235 0.0 0.0 0.00 0.00 0.00 75 1014.1
20260509010006 8 235 0.0 0.0 0.00 0.00 0.00 73 1013.8
20260509004504 8 235 0.0 0.0 0.00 0.00 0.00 71 1013.5
20260509003017 9 235 0.0 0.0 0.00 0.00 0.00 68 1013.4
20260509001618 10 235 0.0 0.0 0.00 0.00 0.00 65 1013.3
20260509000059 11 235 0.0 0.0 0.00 0.00 0.00 59 1013.2
20260508234559 11 235 0.0 0.0 0.00 0.00 0.00 60 1013.0
20260508234507 11 235 0.0 0.0 0.00 0.00 0.00 61 1013.0
20260508233125 12 235 0.0 0.0 0.00 0.00 0.00 58 1013.0
20260508231629 12 235 0.0 0.0 0.00 0.00 0.00 55 1012.8
20260508230059 12 235 0.0 0.0 0.00 0.00 0.00 58 1012.5
20260508224615 12 235 0.0 0.0 0.00 0.00 0.00 54 1012.4
20260508223053 12 169 0.0 1.6 0.00 0.00 0.00 54 1012.2
20260508223024 12 169 0.0 1.6 0.00 0.00 0.00 55 1012.2
20260508221553 12 159 0.0 0.0 0.00 0.00 0.00 55 1012.1
20260508220049 13 43 0.0 0.0 0.00 0.00 0.00 55 1012.1
20260508214548 12 81 0.0 0.0 0.00 0.00 0.00 57 1012.2
20260508211546 12 81 0.0 0.0 0.00 0.00 0.00 60 1012.2
20260508210047 12 109 0.0 3.2 0.00 0.00 0.00 62 1012.2
20260508204550 12 156 0.0 0.0 0.00 0.00 0.00 61 1012.2
20260508203050 12 61 0.0 3.2 0.00 0.00 0.00 65 1012.1
20260508201541 12 270 0.0 3.2 0.00 0.00 0.00 61 1012.0
20260508201505 12 270 0.0 9.7 0.00 0.00 0.00 61 1012.0
20260508200048 12 94 0.0 4.8 0.00 0.00 0.00 66 1011.9
20260508194537 11 266 3.2 9.7 0.00 0.00 0.00 67 1012.3
20260508193036 10 224 1.6 6.4 0.00 0.00 0.00 69 1012.5
20260508191541 10 257 0.0 4.8 0.00 0.00 0.00 72 1012.6
20260508190109 10 244 0.0 4.8 0.00 0.00 0.00 76 1012.7
20260508184536 10 278 0.0 8.0 0.00 0.00 0.00 73 1013.1
20260508183031 11 262 1.6 9.7 0.00 0.00 0.00 64 1012.8
20260508181531 12 227 0.0 6.4 0.00 0.00 0.00 58 1012.3
20260508180020 13 229 3.2 9.7 0.00 0.00 0.00 54 1012.1
20260508174507 12 238 1.6 6.4 0.00 0.00 0.00 59 1012.2
20260508173006 11 238 0.0 3.2 0.00 0.00 0.00 62 1012.8
20260508171559 11 258 0.0 11.3 0.00 0.00 0.00 59 1012.8
20260508170058 12 214 1.6 6.4 0.00 0.00 0.00 57 1012.8
20260508164601 12 255 0.0 4.8 0.00 0.00 0.00 55 1012.6
20260508163118 12 273 3.2 8.0 0.00 0.00 0.00 54 1012.6
20260508161552 12 274 4.8 11.3 0.00 0.00 0.00 55 1012.7
20260508161505 12 206 1.6 8.0 0.00 0.00 0.00 56 1012.8
20260508160112 12 224 1.6 4.8 0.00 0.00 0.00 53 1012.8
20260508154513 12 233 0.0 3.2 0.00 0.00 0.00 53 1012.8
20260508153042 12 283 3.2 6.4 0.00 0.00 0.00 55 1012.9
20260508151540 12 229 1.6 8.0 0.00 0.00 0.00 57 1012.6
20260508150055 12 83 0.0 9.7 0.00 0.00 0.00 60 1013.0
20260508144520 11 207 0.0 1.6 0.00 0.00 0.00 61 1013.2
20260508141520 11 203 3.2 6.4 0.00 0.00 0.00 62 1013.2
20260508140021 12 329 0.0 4.8 0.00 0.00 0.00 62 1013.0
20260508134511 11 247 0.0 4.8 0.00 0.00 0.00 67 1013.1
20260508133010 10 221 0.0 9.7 0.00 0.00 0.00 70 1013.3
20260508131503 11 231 1.6 4.8 0.00 0.00 0.00 68 1013.4
20260508130133 10 226 1.6 4.8 0.00 0.00 0.00 69 1013.2
20260508124555 10 221 0.0 3.2 0.00 0.00 0.00 74 1013.4
20260508123107 9 223 0.0 4.8 0.00 0.00 0.00 76 1013.6
20260508121557 8 149 0.0 0.0 0.00 0.00 0.00 76 1013.6
20260508120052 8 110 0.0 0.0 0.00 0.00 0.00 79 1013.6
20260508114537 7 231 0.0 0.0 0.00 0.00 0.00 80 1013.5
20260508113039 7 278 0.0 0.0 0.00 0.00 0.00 82 1013.3
20260508111524 6 241 0.0 0.0 0.00 0.00 0.00 84 1013.3
20260508110021 5 250 0.0 0.0 0.00 0.00 0.00 89 1013.1
20260508104521 3 248 0.0 0.0 0.00 0.00 0.00 91 1013.1
20260508103020 3 248 0.0 0.0 0.00 0.00 0.00 90 1013.1
20260508101514 3 248 0.0 0.0 0.00 0.00 0.00 89 1012.7
20260508100008 3 248 0.0 0.0 0.00 0.00 0.00 88 1012.6
20260508094513 3 248 0.0 0.0 0.00 0.00 0.00 87 1012.6
20260508093101 4 248 0.0 0.0 0.00 0.00 0.00 86 1012.5
20260508091608 5 248 0.0 0.0 0.00 0.00 0.00 85 1012.3
20260508090123 5 248 0.0 0.0 0.00 0.00 0.00 85 1012.2
20260508084544 5 248 0.0 0.0 0.00 0.03 0.00 83 1012.1
20260508083041 6 248 0.0 0.0 0.00 0.03 0.00 82 1012.3
20260508081605 6 248 0.0 0.0 0.00 0.03 0.00 82 1012.3
20260508080043 6 241 0.0 0.0 0.00 0.03 0.00 80 1012.4
20260508073040 6 250 0.0 0.0 0.00 0.03 0.00 79 1012.4
20260508071505 6 250 0.0 0.0 0.00 0.03 0.00 77 1012.3
20260508070104 7 250 0.0 0.0 0.00 0.03 0.00 75 1011.8
20260508064555 7 226 0.0 0.0 0.00 0.15 0.00 73 1012.3
20260508063054 7 155 0.0 0.0 0.00 0.15 0.00 69 1012.3
20260508061551 7 269 0.0 0.0 0.00 0.15 0.00 73 1012.3
20260508060052 7 259 0.0 0.0 0.00 0.15 0.00 70 1012.1
20260508054547 7 264 0.0 0.0 0.00 0.15 0.00 65 1011.4
20260508053108 7 259 0.0 0.0 0.00 0.15 0.00 62 1011.3
20260508051539 7 240 0.0 0.0 0.00 0.15 0.00 64 1011.3
20260508050035 7 239 0.0 0.0 0.00 0.15 0.00 59 1011.2
20260508044533 7 28 0.0 0.0 0.00 0.15 0.00 55 1011.2
20260508043051 7 51 0.0 0.0 0.00 0.15 0.00 55 1010.8
20260508041601 7 284 0.0 0.0 0.00 0.15 0.00 61 1010.9
20260508040028 7 83 0.0 1.6 0.00 0.15 0.00 57 1010.9